This demonstration page uses our WeatherBlox Daily Observations layout. Learn more.

Left ArrowRight Arrow

44.8408, -93.29828

Hourly Observations for April 17, 2019

Temp ( °F °C ) Dew Point ( °F °C ) Humidity (%) Winds ( mph kmh ) Pressure ( in mb ) Visibility ( mi km ) Precip ( " mm )
12:53 am 00:53 Cloudy 54 12.2 32 0 43 43 ESE 7 11 29.93 1013 10 16 0.00 0.00
1:53 am 01:53 Cloudy 53 11.7 32 0 45 45 ESE 7 11 29.91 1013 10 16 0.00 0.00
2:53 am 02:53 Cloudy 52 11.1 32 0 47 47 E 6 9 29.88 1012 10 16 0.00 0.00
3:53 am 03:53 Mostly Cloudy 52 11.1 32 0 47 47 E 9 15 29.87 1012 10 16 0.00 0.00
4:53 am 04:53 Mostly Cloudy 52 11.1 32 0 47 47 E 10 17 29.85 1011 10 16 0.00 0.00
5:53 am 05:53 Cloudy 53 11.7 32 0 45 45 ESE 14 22 29.83 1010 10 16 0.00 0.00
6:53 am 06:53 Cloudy 52 11.1 33 0.6 49 49 E 12 19 29.81 1010 10 16 0.00 0.00
7:53 am 07:53 Cloudy 52 11.1 35 1.7 53 53 E 14 22 29.79 1009 10 16 0.00 0.00
8:53 am 08:53 Cloudy with Light Rain 51 10.6 39 3.9 64 64 E 14 22 29.75 1008 10 16 0.01 0.25
9:53 am 09:53 Cloudy with Light Rain 48 8.9 42 5.6 80 80 E 14 22 29.71 1006 10 16 0.02 0.51
10:14 am 10:14 Cloudy with Light Rain 48 8.9 42 5.6 80 80 ESE 13 20 29.74 1007 8 13 0.00 0.03
10:44 am 10:44 Cloudy with Nearby Thunderstorms 47 8.3 42 5.6 83 83 E 13 20 29.74 1007 5 8 0.08 2.03
10:53 am 10:53 Cloudy with Nearby Thunderstorms 47 8.3 42 5.6 83 83 E 10 17 29.72 1007 5 8 0.11 2.79
11:11 am 11:11 Cloudy with Heavy Rain 46 7.8 43 6.1 89 89 E 10 17 29.73 1007 3 5 0.07 1.78
11:15 am 11:15 Cloudy with Nearby Thunderstorms 46 7.8 43 6.1 89 89 E 14 22 29.72 1006 3 5 0.11 2.79
11:31 am 11:31 Cloudy with Rain 46 7.8 44 6.7 93 93 ESE 12 19 29.72 1006 5 8 0.20 5.08
11:53 am 11:53 Cloudy with Rain 46 7.8 44 6.7 93 93 ESE 13 20 29.70 1006 4 6 0.23 5.84
12:10 pm 12:10 Cloudy with Nearby Thunderstorms 47 8.3 45 7.2 93 93 E 10 17 29.70 1006 4 6 0.05 1.27
12:19 pm 12:19 Cloudy with Nearby Thunderstorms 47 8.3 45 7.2 93 93 E 12 19 29.68 1005 2 3 0.11 2.79
12:30 pm 12:30 Cloudy with Nearby Thunderstorms 48 8.9 45 7.2 89 89 ESE 12 19 29.68 1005 4 6 0.15 3.81
12:37 pm 12:37 Cloudy with Rain 48 8.9 46 7.8 93 93 ESE 13 20 29.67 1005 4 6 0.17 4.32
12:53 pm 12:53 Cloudy with Light Rain 48 8.9 46 7.8 93 93 SE 9 15 29.67 1005 4 6 0.22 5.59
1:24 pm 13:24 Cloudy with Rain 47 8.3 45 7.2 93 93 NE 3 6 29.69 1005 2 3 0.10 2.54
1:26 pm 13:26 Cloudy with Strong Thunderstorms 47 8.3 45 7.2 93 93 NE 3 6 29.69 1005 2 3 0.10 2.54
1:41 pm 13:41 Cloudy with Rain 47 8.3 45 7.2 93 93 ENE 13 20 29.63 1003 1 2 0.18 4.57
1:53 pm 13:53 Cloudy with Light Rain 47 8.3 46 7.8 97 97 ENE 8 13 29.61 1003 3 4 0.22 5.59
2:01 pm 14:01 Cloudy with Light Rain 48 8.9 46 7.8 93 93 E 12 19 29.61 1003 3 5 0.01 0.25
2:53 pm 14:53 Cloudy with Light Rain 48 8.9 45 7.2 89 89 E 14 22 29.58 1002 7 11 0.05 1.27
3:26 pm 15:26 Cloudy 48 8.9 45 7.2 89 89 ENE 7 11 29.58 1002 10 16 0.01 0.25
3:50 pm 15:50 Cloudy 48 9 45 7 87 87 ENE 8 13 29.57 1001 10 16 0.01 0.25
3:53 pm 15:53 Cloudy 48 8.9 45 7.2 89 89 ENE 8 13 29.57 1001 10 16 0.01 0.25
4:53 pm 16:53 Cloudy with Rain 47 8.3 44 6.7 90 90 ENE 9 15 29.55 1001 3 5 0.04 1.02
5:40 pm 17:40 Cloudy with Light Rain 46 7.8 44 6.7 93 93 NE 13 20 29.54 1000 6 10 0.11 2.79
5:53 pm 17:53 Cloudy with Light Rain 46 7.8 44 6.7 93 93 N 12 19 29.54 1000 6 10 0.12 3.05
6:53 pm 18:53 Cloudy with Light Rain 45 7.2 43 6.1 93 93 N 13 20 29.57 1001 3 4 0.04 1.02
7:08 pm 19:08 Cloudy with Light Rain 45 7.2 42 5.6 90 90 N 13 20 29.58 1002 2 2 0.01 0.25
7:35 pm 19:35 Cloudy with Light Rain 44 6.7 42 5.6 93 93 N 12 19 29.58 1002 5 8 0.02 0.51
7:53 pm 19:53 Cloudy with Drizzle 44 6.7 42 5.6 93 93 N 13 20 29.57 1001 5 8 0.02 0.51
8:53 pm 20:53 Cloudy 43 6.1 40 4.4 89 89 N 13 20 29.60 1002 10 16 0.00 0.03
9:53 pm 21:53 Cloudy 42 5.6 39 3.9 89 89 N 15 24 29.64 1004 10 16 0.00 0.00
10:53 pm 22:53 Cloudy with Light Rain 41 5 39 3.9 93 93 N 10 17 29.68 1005 3 4 0.00 0.03
11:04 pm 23:04 Cloudy with Mist and Fog 41 5 39 3.9 93 93 N 12 19 29.71 1006 3 5 0.01 0.25
11:09 pm 23:09 Cloudy with Mist and Fog 41 5 39 3.9 93 93 N 12 19 29.71 1006 3 4 0.01 0.25
11:17 pm 23:17 Cloudy with Light Rain 41 5 39 3.9 93 93 NNW 12 19 29.71 1006 3 4 0.01 0.25
11:48 pm 23:48 Cloudy with Mist and Fog 41 5 39 4 93 93 NNW 10 17 29.72 1006 3 5 0.01 0.25
11:53 pm 23:53 Cloudy with Mist and Fog 41 5 39 3.9 93 93 NNW 13 20 29.70 1006 3 5 0.01 0.25

Powered by AerisWeather